Location: Newark
(25.0000°N, 73.5000°E)
Time: 11:51:23
(UTC+00:00)

RS-15 - Pass Details

Date: 27 February 2020
Orbit: 1898 x 2146 km, 64.8° (Epoch: 03 April)

Event Time Altitude Azimuth Distance (km) Brightness Sun altitude
Rises 21:41:56 0° 347° (NNW) 5,323 10.4 -52.0°
Reaches altitude 10° 21:46:41 10° 4° (N) 4,354 10.0 -51.0°
Maximum altitude 21:54:19 20° 48° (NE) 3,647 9.7 -49.4°
Drops below altitude 10° 22:02:06 10° 92° (E) 4,481 10.4 -47.7°
Sets 22:06:59 0° 108° (ESE) 5,525 10.9 -46.6°
